www.pogodaiklimat.ru

Погода и климат >> Архив погоды >> Гондурас >> Тегусигальпа


АРХИВ ПОГОДЫ в Тегусигальпе

Время (UTC), дата Ветер
(напр.,м/с)
 
Видим.   Явления Облачность Т
(С)
Тd
(С)
f
(%)
Тe
(С)
Тes
(С)
Комфортность P
(гПа)
Po
(гПа)
Тmin
(С)
Tmax
(С)
R
(мм)
R24
(мм)
S
(см)
21 10.06 СВ 4 4000 м осадки на расстоянии {туман} 9/6 900 м
[Cb cap Ac trans Ci fib]
+26.1 +17.6 59 +30 +32 душно 1011.0 902.0
00 11.06 З 5 10 км гроза без осадков {туман} 9/5 900 м
[Cb cap Ac cuf Ci ing]
+22.4 +17.5 74 +27 +27 душно 1013.2 902.7 +17.9 +27.0
03 11.06 В 2 10 км зарница {туман} 9/4 840 м
[Sc diur, vesp Ac und Cc]
+22.0 +16.7 72 +26 +26 душно 1016.0 905.0
06 11.06 штиль 0 10 км мгла {туман} 3/3 600 м
[St As op Cs]
+27.0 +17.2 55 +21 +21 комфорт 1016.8 904.6 +17.9 +27.0
09 11.06 штиль 0 10 км мгла {туман} 6/6 800 м
[St As op Cs]
+19.6 +17.7 89 +22 +22 комфорт 1015.6 903.8
12 11.06 С 2 8000 м дымка {туман} 8/8 240 м
[Sc]
+19.6 +18.2 92 +23 +23 комфорт 1016.2 904.4 +19.1 +27.0
15 11.06 С 3 10 км в посл. час дождь {морось} 8/6 360 м
[Sc diur, vesp Ac trans Ci fib]
+22.4 +18.8 80 +28 +31 душно 1016.3 905.4 0.3
18 11.06 В 4 14 км осадки на расстоянии {морось} 9/9 840 м
[Cu med, cong Ci fib]
+25.7 +16.8 58 +29 +31 душно 1014.1 904.6 +19.1 +26.1 0.3
21 11.06 СВ 5 14 км мгла {туман} 9/4 960 м
[Cu med, cong Ac trans Ci fib]
+26.6 +14.8 48 +29 +31 жарко 1011.7 902.8
00 12.06 Ю 1 <100 м в посл. час гроза {дождь} 9/8 840 м
[Cb cap Ac cuf Ci ing]
+20.5 +16.8 79 +25 +25 комфорт 1014.1 902.8 +19.1 +26.7 0.1
03 12.06 штиль 0 10 км мгла {туман} 6/3 840 м
[Sc Ac trans Ci fib]
+19.2 +16.2 83 +21 +21 комфорт 1016.2 904.3
06 12.06 штиль 0 10 км мгла {туман} 5/5 840 м
[Sc Ac trans]
+18.2 +16.9 92 +19 +19 по сезону 1017.4 904.9 +19.1 +26.7
09 12.06 штиль 0 10 км мгла {туман} 3/3 840 м
[Sc Ac trans Ci fib]
+16.7 +15.9 95 +17 +17 прохладно 1016.1 903.2
12 12.06 штиль 0 10 км дымка {туман} 9/9 120 м
[Sc Ac trans]
+16.2 +15.7 97 +16 +16 прохладно 1017.2 904.0 +15.9 +26.7
15 12.06 СЗ 3 10 км мгла {туман} 9/1 360 м
[Sc Ac trans Ci fib]
+20.2 +19.1 93 +24 +30 комфорт 1016.0 905.4
18 12.06 ЮВ 2 10 км мгла {туман} 9/8 840 м
[Cb calv Ac trans Ci fib]
+25.5 +16.8 59 +29 +32 душно 1013.7 904.3 +15.9 +25.6
21 12.06 З 5 5000 м в посл. час дождь {туман} 9/8 840 м
[Cb cap Ac trans Ci fib]
+21.3 +18.3 83 +26 +26 душно 1013.0 902.4 0.0
00 13.06 В 5 4000 м гроза без осадков {туман} 9/9 800 м
[Cb cap Ac trans Cs]
+22.3 +17.0 72 +27 +27 душно 1013.5 902.9 +15.9 +27.9 0.0
06 13.06 штиль 0 8000 м мгла {гроза, дождь} 9/4 300 м
[Sc Ac As]
+18.5 +17.3 93 +19 +19 по сезону 1017.3 904.9 +15.9 +27.9 0.1
09 13.06 штиль 0 8000 м в посл. час дождь 9/4 180 м
[Sc Ac As]
+18.0 +17.9 99 +18 +18 по сезону 1015.9 903.5 0.3
12 13.06 штиль 0 4000 м дымка {дождь, туман} 9/8 240 м
[Sc Ac trans]
+18.4 +17.7 96 +19 +19 по сезону 1017.0 901.4 +17.9 +27.9 0.3
15 13.06 ЮВ 2 10 км мгла {туман} 9/5 800 м
[Sc diur, vesp Ac As]
+22.1 +17.3 74 +27 +30 душно 1016.9 905.9
18 13.06 СВ 2 10 км осадки на расстоянии {туман} 9/8 720 м
[Cu med, cong Ac As]
+24.2 +18.5 70 +29 +32 душно 1015.6 905.4 +17.9 +24.2
21 13.06 В 3 10 км осадки на расстоянии {туман} 6/5 900 м
[Cb calv Ac trans]
+26.9 +17.6 57 +31 +35 душно 1011.9 903.1
00 14.06 В 3 10 км осадки на расстоянии {туман} 9/6 840 м
[Cb cap Ac cuf Ci ing]
+23.7 +17.2 67 +28 +28 душно 1013.5 903.4 +17.9 +26.9
03 14.06 штиль 0 10 км в посл. час гроза {ливн. осадки} 9/6 840 м
[Sc Ac trans Ci fib]
+19.7 +18.7 94 +22 +22 комфорт 1018.2 906.2 6
06 14.06 штиль 0 10 км мгла {туман} 9/8 800 м
[Sc Ac trans]
+19.7 +18.8 95 +22 +22 комфорт 1018.2 906.2 +17.9 +26.9
09 14.06 З 3 10 км дымка {туман} 9/4 800 м
[Sc Ci fib]
+18.3 +17.9 98 +19 +19 по сезону 1017.0 904.5
12 14.06 штиль 0 10 км дымка {туман} 9/6 300 м
[Sc Ac trans Ci fib]
+18.2 +17.9 98 +19 +19 по сезону 1017.7 905.1 +17.9 +26.9
15 14.06 штиль 0 10 км мгла {туман} 6/4 800 м
[Cu hum Ac trans]
+22.9 +16.9 69 +28 +36 душно 1016.9 906.1
18 14.06 СВ 2 10 км мгла {туман} 8/3 900 м
[Cu hum Ac trans Ci fib]
+26.3 +15.0 50 +29 +39 жарко 905.0 +17.3 +26.3
21 14.06 ЮВ 4 10 км мгла {туман} 8/6 900 м
[Cu hum]
+27.1 +15.8 50 +30 +32 душно 1012.1 903.4
00 15.06 ЮВ 2 10 км мгла {туман} 9/8 840 м
[Cb cap Ci fib]
+24.0 +17.5 67 +28 +28 душно 1013.0 903.1 +17.9 +27.5
03 15.06 СВ 1 10 км осадки на расстоянии {туман} 9/8 900 м
[Sc Ac trans]
+22.2 +18.0 77 +27 +27 душно 1015.8 905.0
06 15.06 С 3 8000 м осадки на расстоянии {туман} 9/9 240 м
[Sc Ac trans]
+20.2 +18.4 89 +24 +24 комфорт 1017.4 905.6 +17.9 +27.5 0.1
09 15.06 С 2 10 км мгла {туман} 4/4 800 м
[Sc Ac lent]
+18.7 +17.8 95 +21 +21 комфорт 1016.4 904.2
12 15.06 штиль 0 10 км дымка {туман} 4/3 750 м
[Sc Ci fib]
+16.9 +16.8 99 +17 +17 по сезону 1017.9 904.9 +16.9 +27.5
15 15.06 С 5 10 км мгла {туман} 9/9 900 м
[Sc diur, vesp Ci fib]
+21.9 +18.2 80 +27 +27 душно 1016.8 905.7
18 15.06 СВ 5 10 км мгла {туман} 4/4 900 м
[Cu hum Ci fib]
+26.8 +16.1 52 +30 +37 душно 1013.5 904.5 +16.9 +26.8
21 15.06 ЮВ 3 10 км мгла {туман} 3/3 900 м
[Cu hum Ci fib]
+28.1 +17.0 51 +32 +38 душно 1010.3 902.0
00 16.06 В 2 10 км мгла {туман} 3/3 900 м
[Sc diur, vesp]
+24.8 +16.0 58 +28 +28 жарко 1011.7 902.2 +16.9 +28.1
03 16.06 штиль 0 10 км мгла {туман} 1/1 840 м
[Sc]
+21.4 +16.0 71 +25 +25 комфорт 1014.9 903.9
06 16.06 ЮЗ 2 10 км мгла {туман} 1/1 840 м
[Sc]
+19.2 +16.5 84 +21 +21 комфорт 1016.6 904.6 +16.9 +28.1
12 16.06 ЮЗ 1 10 км мгла {туман} 5/4 800 м
[Sc Ci fib]
+18.0 +16.2 89 +19 +19 по сезону 1015.9 903.5 +17.7 +28.1
15 16.06 С 4 10 км мгла {туман} 9/8 800 м
[Sc diur, vesp Ac trans Ci fib]
+22.8 +18.0 74 +28 +29 душно 1014.5 904.0
18 16.06 В 5 15 км мгла {туман} 9/9 900 м
[Cu med, cong Ci fib]
+27.0 +18.0 58 +32 +33 очень
душно
1011.6 902.6 +17.7 +27.6
21 16.06 В 3 16 км мгла {туман} 6/4 960 м
[Cu med, cong Ci fib]
+28.0 +16.5 50 +32 +36 душно 1009.5 901.2
03 17.06 З 3 10 км зарница {туман} 4/1 900 м
[Cb cap Ac trans Ci fib]
+20.1 +17.9 87 +23 +23 комфорт 1014.5 903.0
06 17.06 штиль 0 10 км мгла {туман} 4/1 840 м
[Sc Ci fib]
+18.3 +16.5 89 +19 +19 по сезону 1015.5 903.2 +17.7 +28.5
09 17.06 З 3 10 км мгла {туман} 8/1 840 м
[Sc Ac trans Cs]
+17.0 +15.6 91 +17 +17 прохладно 1015.5 902.8
15 17.06 В 2 12 км мгла {туман} 9/4 660 м
[Cu hum Cs]
+25.0 +17.5 63 +29 +36 душно 1014.2 900.4
18 17.06 В 3 15 км мгла {туман} 8/4 960 м
[Cu hum Cs]
+27.7 +15.5 47 +31 +40 душно 1011.8 903.3 +16.0 +27.7

 

Местоположение метеостанции Тегусигальпа (Гондурас): широта 14.05 долгота -87.21 высота над уровнем моря 1007 м.

В архиве по умолчанию представлена погода в Тегусигальпе за последнюю неделю. Архивные данные за месяц целиком и за предыдущие месяцы, начиная с января 2011 года, Вы можете получить, выбрав интересующий диапазон дат из раскрывающегося списка и нажав кнопку "Ввод!".


*Определитесь, кто Вы:
робот инопланетянин человек

Внимание! Время в таблицах - всемирное. Для получения местного времени необходимо прибавить поправку, которая равна -6 ч.

Смотрите также архив погоды в соседних городах и на ближайших метеорологических станциях:

Погода в Чолутеке (Гондурас) (83 км)
Погода в Амапале (Гондурас) (99 км)
Погода в Ла-Эсперансе (Гондурас) (107 км)
Погода в Йоро (Гондурас) (125 км)
Погода в Чинандеге (Никарагуа) (158 км)
Погода в Катакамасе (Гондурас) (167 км)
Погода в Хинотеге (Никарагуа) (171 км)
Погода в Ла-Лиме (Гондурас) (174 км)
Погода в Санта-Роза-де-Копане (Гондурас) (188 км)
Погода в Теле (Гондурас) (188 км)

Пояснения к столбцам:

Ветер - указаны скорость ветра в м/с - средняя за 10 мин, порывы в срок и между сроками (в фигурных скобках) и направление, откуда дует ветер: С - северный, СВ - северо-восточный, В - восточный, ЮВ - юго-восточный, Ю - южный, ЮЗ - юго-западный, З - западный, СЗ - северо-западный.
Видимость - горизонтальная дальность видимости в метрах или километрах. При видимости от 1 до 10 км при отсутствии осадков обычно наблюдается дымка, при ухудшении видимости до 1 км и менее - туман. В сухую погоду видимость может ухудшаться дымом, пылью или мглою.
Явления - указаны атмосферные явления, наблюдавшиеся в срок или в последний час перед сроком; фигурными скобками обозначены явления, наблюдавшиеся между сроками (за 1-3 часа до срока); квадратными скобками обозначены град или гололедные отложения с указанием их диаметра в мм.
Облачность - указаны через наклонную черту общая и нижняя облачность в баллах и высота нижней границы облаков в метрах; квадратными скобками обозначены формы облаков: Ci - перистые, Cs - перисто-слоистые, Cc - перисто-кучевые, Ac - высококучевые, As - высокослоистые, Sc - слоисто-кучевые, Ns - слоисто-дождевые, Cu - кучевые, Cb - кучево-дождевые. Подробнее классификацию облаков см. в Атласе облаков (PDF).
T - Температура воздуха - температура, измеренная на высоте 2 м над землей.
Td - Температура точки росы - температура, при понижении до которой содержащийся в воздухе водяной пар достигнет насыщения.
f - Относительная влажность воздуха - влажноcть воздуха, измеренная на высоте 2 м над землей.
Te - Эффективная температура - температура, которую ощущает одетый по сезону человек в тени. Характеристика душности погоды. При расчете учитывается влияние влажности воздуха и скорости ветра на теплоощущения человека.
Tes - Эффективная температура на солнце - температура, которую ощущает человек, с поправкой на солнечный нагрев. Характеристика знойности погоды. Зависит от высоты солнца над горизонтом, облачности и скорости ветра. Ночью, в пасмурную погоду, а также при ветре 12 м/с и более поправка равна нулю.
P - Атмосферное давление - приведенное к уровню моря атмосферное давление.
Po - Атмосферное давление - измеренное на уровне метеостанции атмосферное давление.
Tmin - Минимальная температура - минимум температуры воздуха на высоте 2 м над землей.
Tmax - Максимальная температура - максимум температуры воздуха на высоте 2 м над землей.
R - Количество осадков - Количество выпавших осадков за период времени, мм. При наведении курсора мыши на число - период времени, за который выпало указанное количество осадков.
R24 - Количество осадков - Количество выпавших осадков за 24 часа, мм.
S - Снежный покров - Высота снежного покрова, см. При наведении курсора мыши на число - состояние снежного покрова и степень покрытия местности в баллах.